Tracking 26303 objects as of 1-Dec-2022
HD Live streaming from Space Station
objects crossing your sky now

H-2A DEB

Track H-2A DEB now!
10-day predictions


NORAD ID: 43673
Int'l Code: 2018-084C
Perigee: 583.5 km
Apogee: 603.5 km
Inclination: 98.0 °
Period: 96.4 minutes
Semi major axis: 6964 km
RCS: Unknown
Launch date: October 29, 2018
Source: Japan (JPN)
Launch site: TANEGASHIMA SPACE CENTER (TNSTA)

Note: This is SATELLITE DEBRIS
aabbcc
Your satellite tracking list
Your tracking list is empty




NASA's NSSDC Master Catalog

Two Line Element Set (TLE):
1 43673U 18084C   22334.34190116  .00005771  00000-0  54967-3 0  9997
2 43673  97.9640 101.6296 0014379  67.2755 292.9982 14.93716288222164
Source of the keplerian elements: McCants